Date String (YYYY-MM-DD hh:mm:ss) UTC,Instrument flags,Ambient pressure (hPa),Sample flow (lpm),Bypass flow (lpm),Sample temperature (°C),Ambient temperature (°C),ASC tube jacket temperature (°C),LED temperature (°C),Box temperature (°C),Sample RH (%),Span deviation,Mass concentration (μg/m³),Mass concentration (μg/m³),Mass concentration (μg/m³)
DateTimeUTC,F1_M11,P_M11,Q1_M11,Q2_M11,T1_M11,T2_M11,T3_M11,T4_M11,T5_M11,U1_M11,ZSPAN_M11,X2_M11,X0_M11,X1_M11
2022-10-05 16:00:00,,0834.3,5.00,0.00,29.5,28.4,00.0,38.1,31.4,20.0,0000.0,0004.57,0007.45,0004.33
2022-10-05 16:01:00,,0834.3,4.99,0.00,29.5,28.1,00.0,38.1,31.3,20.1,0000.0,0004.63,0007.49,0004.37
2022-10-05 16:02:00,,0834.3,5.01,0.00,29.4,27.2,00.0,38.1,31.0,20.3,0000.0,0004.65,0007.70,0004.41
2022-10-05 16:03:00,,0834.3,5.00,0.00,29.2,26.5,00.0,38.1,30.7,20.9,0000.0,0004.70,0008.07,0004.45
2022-10-05 16:04:00,,0834.3,5.00,0.00,29.1,26.3,00.0,38.0,30.6,20.9,0000.0,0004.75,0008.18,0004.47
2022-10-05 16:05:00,,0834.3,4.99,0.00,29.0,26.4,00.0,38.0,30.6,20.6,0000.0,0004.76,0008.53,0004.46
2022-10-05 16:06:00,,0834.3,4.99,0.00,28.9,26.2,00.0,37.9,30.4,20.7,0000.0,0004.77,0009.01,0004.48
2022-10-05 16:07:00,,0834.3,5.00,0.00,28.8,25.9,00.0,37.9,30.3,20.9,0000.0,0004.75,0009.05,0004.48
2022-10-05 16:08:00,,0834.3,5.00,0.00,28.6,25.6,00.0,37.8,30.1,21.1,0000.0,0004.72,0008.99,0004.45
2022-10-05 16:09:00,,0834.3,5.01,0.00,28.5,25.4,00.0,37.7,29.9,21.3,0000.0,0004.70,0008.88,0004.44
2022-10-05 16:10:00,,0834.3,5.01,0.00,28.4,25.4,00.0,37.7,29.9,21.3,0000.0,0004.69,0008.81,0004.42
2022-10-05 16:11:00,,0834.3,5.01,0.00,28.3,25.4,00.0,37.6,29.8,21.6,0000.0,0004.67,0008.84,0004.39
2022-10-05 16:12:00,,0834.3,5.00,0.00,28.2,25.3,00.0,37.5,29.7,21.4,0000.0,0004.63,0008.80,0004.36
2022-10-05 16:13:00,,0834.3,4.99,0.00,28.1,25.1,00.0,37.4,29.5,21.7,0000.0,0004.59,0008.76,0004.31
2022-10-05 16:14:00,,0834.3,5.00,0.00,28.0,24.9,00.0,37.4,29.4,22.1,0000.0,0004.56,0008.09,0004.27
2022-10-05 16:15:00,,0834.3,4.99,0.00,27.9,25.0,00.0,37.3,29.4,22.1,0000.0,0004.53,0008.21,0004.23
2022-10-05 16:16:00,,0834.3,5.00,0.00,27.9,25.0,00.0,37.2,29.3,21.9,0000.0,0004.52,0008.11,0004.23
2022-10-05 16:17:00,,0834.3,5.00,0.00,27.7,24.6,00.0,37.1,29.1,22.4,0000.0,0004.52,0007.78,0004.22
2022-10-05 16:18:00,,0834.3,5.00,0.00,27.6,24.1,00.0,37.0,28.9,23.1,0000.0,0004.50,0007.92,0004.21
2022-10-05 16:19:00,,0834.3,4.98,0.00,27.5,23.9,00.0,36.9,28.8,22.9,0000.0,0004.50,0008.04,0004.21
2022-10-05 16:20:00,,0834.3,4.99,0.00,27.3,23.8,00.0,36.8,28.6,22.8,0000.0,0004.53,0008.30,0004.22
2022-10-05 16:21:00,,0834.3,5.00,0.00,27.2,23.8,00.0,36.7,28.6,23.3,0000.0,0004.55,0008.42,0004.24
2022-10-05 16:22:00,,0834.3,5.00,0.00,27.1,24.0,00.0,36.6,28.6,23.0,0000.0,0004.56,0008.38,0004.27
2022-10-05 16:23:00,,0834.3,5.00,0.00,27.1,24.2,00.0,36.5,28.6,22.6,0000.0,0004.58,0008.44,0004.29
2022-10-05 16:24:00,,0834.3,5.00,0.00,27.1,24.4,00.0,36.5,28.6,22.8,0000.0,0004.59,0008.44,0004.31
2022-10-05 16:25:00,,0834.3,5.01,0.00,27.0,24.4,00.0,36.4,28.6,23.7,0000.0,0004.59,0008.41,0004.33
2022-10-05 16:26:00,,0834.3,4.99,0.00,26.9,24.3,00.0,36.3,28.5,23.7,0000.0,0004.61,0008.27,0004.35
2022-10-05 16:27:00,,0834.3,5.01,0.00,26.9,24.4,00.0,36.3,28.5,23.5,0000.0,0004.60,0008.37,0004.36
2022-10-05 16:28:00,,0834.3,5.00,0.00,26.9,24.4,00.0,36.2,28.5,23.5,0000.0,0004.59,0008.16,0004.37
2022-10-05 16:29:00,,0834.2,5.00,0.00,26.9,24.3,00.0,36.2,28.4,23.7,0000.0,0004.61,0007.97,0004.37
2022-10-05 16:30:00,,0834.3,5.01,0.00,26.8,24.2,00.0,36.1,28.4,23.8,0000.0,0004.63,0008.01,0004.38
2022-10-05 16:31:00,,0834.3,4.98,0.00,26.8,24.3,00.0,36.1,28.4,24.7,0000.0,0004.61,0008.10,0004.37
2022-10-05 16:32:00,,0834.3,5.01,0.00,26.8,24.4,00.0,36.0,28.4,24.2,0000.0,0004.62,0007.91,0004.37
2022-10-05 16:33:00,,0834.3,4.99,0.00,26.8,24.6,00.0,36.0,28.5,24.2,0000.0,0004.61,0007.87,0004.37
2022-10-05 16:34:00,,0834.3,4.99,0.00,26.8,24.8,00.0,35.9,28.5,23.6,0000.0,0004.62,0007.84,0004.38
2022-10-05 16:35:00,,0834.3,5.01,0.00,26.8,24.9,00.0,35.9,28.6,23.6,0000.0,0004.61,0007.78,0004.38
2022-10-05 16:36:00,,0834.3,5.00,0.00,26.8,25.0,00.0,35.9,28.6,23.6,0000.0,0004.61,0007.80,0004.38
2022-10-05 16:37:00,,0834.3,4.99,0.00,26.8,24.9,00.0,35.9,28.6,23.2,0000.0,0004.63,0008.10,0004.39
2022-10-05 16:38:00,,0834.3,5.00,0.00,26.8,24.7,00.0,35.8,28.5,23.8,0000.0,0004.63,0008.13,0004.41
2022-10-05 16:39:00,,0834.3,5.00,0.00,26.8,24.7,00.0,35.8,28.5,24.1,0000.0,0004.66,0008.13,0004.42
2022-10-05 16:40:00,,0834.3,4.99,0.00,26.7,24.6,00.0,35.8,28.5,24.6,0000.0,0004.68,0008.05,0004.43
2022-10-05 16:41:00,,0834.3,5.01,0.00,26.7,24.7,00.0,35.8,28.5,24.3,0000.0,0004.71,0008.10,0004.44
2022-10-05 16:42:00,,0834.2,5.01,0.00,26.7,24.9,00.0,35.8,28.5,24.2,0000.0,0004.72,0007.80,0004.44
2022-10-05 16:43:00,,0834.3,4.99,0.00,26.8,25.0,00.0,35.7,28.5,24.3,0000.0,0004.72,0007.73,0004.45
2022-10-05 16:44:00,,0834.3,4.99,0.00,26.8,25.0,00.0,35.7,28.6,24.1,0000.0,0004.76,0008.11,0004.47
2022-10-05 16:45:00,,0834.3,5.00,0.00,26.8,25.0,00.0,35.7,28.6,24.2,0000.0,0004.76,0008.39,0004.48
2022-10-05 16:46:00,,0834.3,5.00,0.00,26.8,25.0,00.0,35.7,28.5,23.9,0000.0,0004.78,0008.70,0004.49
2022-10-05 16:47:00,,0834.3,5.00,0.00,26.8,25.0,00.0,35.7,28.6,23.7,0000.0,0004.80,0008.82,0004.50
2022-10-05 16:48:00,,0834.3,5.00,0.00,26.8,25.1,00.0,35.7,28.6,24.2,0000.0,0004.81,0008.64,0004.50
2022-10-05 16:49:00,,0834.3,5.01,0.00,26.8,25.1,00.0,35.7,28.6,23.7,0000.0,0004.82,0008.44,0004.49
2022-10-05 16:50:00,,0834.2,4.99,0.00,26.8,25.1,00.0,35.7,28.6,24.1,0000.0,0004.81,0008.40,0004.49
2022-10-05 16:51:00,,0834.2,4.99,0.00,26.8,25.3,00.0,35.7,28.7,24.5,0000.0,0004.80,0008.47,0004.50
2022-10-05 16:52:00,,0834.3,5.01,0.00,26.9,25.5,00.0,35.7,28.7,24.2,0000.0,0004.82,0009.13,0004.54
2022-10-05 16:53:00,,0834.3,5.00,0.00,26.9,25.5,00.0,35.7,28.8,24.1,0000.0,0004.87,0009.42,0004.59
2022-10-05 16:54:00,,0834.3,5.00,0.00,26.9,25.5,00.0,35.7,28.8,24.1,0000.0,0004.94,0009.65,0004.63
2022-10-05 16:55:00,,0834.3,5.00,0.00,26.9,25.5,00.0,35.7,28.8,24.4,0000.0,0004.95,0009.40,0004.64
2022-10-05 16:56:00,,0834.3,5.00,0.00,26.9,25.5,00.0,35.7,28.7,24.4,0000.0,0004.97,0009.12,0004.65
2022-10-05 16:57:00,,0834.3,5.00,0.00,26.9,25.3,00.0,35.7,28.7,24.1,0000.0,0004.97,0008.90,0004.67
2022-10-05 16:58:00,,0834.2,5.01,0.00,26.9,25.2,00.0,35.7,28.6,24.2,0000.0,0004.97,0008.86,0004.67
2022-10-05 16:59:00,,0834.2,4.99,0.00,26.9,25.2,00.0,35.7,28.6,24.5,0000.0,0004.97,0009.45,0004.68
